This demonstration page uses our WeatherBlox Daily Observations layout. Learn more.

39.92423, -83.80882

Hourly Observations for December 19, 2017

Temp ( °F °C ) Dew Point ( °F °C ) Humidity (%) Winds ( mph kmh ) Pressure ( in mb ) Visibility ( mi km ) Precip ( " mm )
12:08 am 00:08 Cloudy 45 7 39 4 81 81 WSW 16 26 30.03 1017 10 16.0934 0 0
12:26 am 00:26 Cloudy 45 7 41 5 87 87 WSW 14 22 30.03 1017 10 16.0934 0 0
12:39 am 00:39 Cloudy 45 7 39 4 81 81 WSW 15 24 30.03 1017 10 16.0934 0 0
12:56 am 00:56 Cloudy 44 6.7 39 3.9 83 83 WSW 13 20 30.03 1017 10 16.0934 0 0
1:56 am 01:56 Cloudy 44 6.7 39 3.9 83 83 SW 13 20 30.03 1017 10 16.0934 0 0
2:56 am 02:56 Cloudy 44 6.7 40 4.4 85 85 WSW 14 22 30.03 1017 10 16.0934 0 0
3:56 am 03:56 Cloudy 44 6.7 40 4.4 85 85 WSW 15 24 30.03 1017 10 16.0934 0 0
4:56 am 04:56 Cloudy 44 6.7 40 4.4 85 85 SW 15 24 30.02 1017 10 16.0934 0 0
5:56 am 05:56 Cloudy 44 6.7 40 4.4 85 85 SW 10 17 30.02 1017 10 16.0934 0 0
6:56 am 06:56 Cloudy 44 6.7 40 4.4 85 85 WSW 15 24 30.03 1017 10 16.0934 0 0
7:56 am 07:56 Cloudy 44 6.7 40 4.4 85 85 WSW 12 19 30.04 1017 9 14.48406 0 0
8:56 am 08:56 Cloudy 44 6.7 40 4.4 85 85 SW 10 17 30.04 1017 9 14.48406 0 0
9:47 am 09:47 Mostly Cloudy 45 7 39 4 81 81 SW 13 20 30.03 1017 9 14.48406 0 0
9:56 am 09:56 Cloudy 45 7.2 40 4.4 83 83 SW 15 24 30.03 1017 9 14.48406 0 0
10:56 am 10:56 Mostly Sunny 45 7.2 40 4.4 83 83 SW 15 24 30.02 1017 8 12.87472 0 0
11:13 am 11:13 Mostly Cloudy 46 8 41 5 82 82 SW 18 30 30.03 1017 8 12.87472 0 0
11:37 am 11:37 Partly Cloudy 46 8 41 5 82 82 WSW 21 33 30 1016 9 14.48406 0 0
11:53 am 11:53 Mostly Cloudy 48 9 41 5 76 76 SW 18 30 30 1016 8 12.87472 0 0
11:56 am 11:56 Mostly Cloudy 48 8.9 41 5 77 77 SW 17 28 29.99 1016 9 14.48406 0 0
12:24 pm 12:24 Partly Cloudy 48 9 41 5 76 76 SW 16 26 30 1016 9 14.48406 0 0
12:56 pm 12:56 Mostly Sunny 47 8.3 40 4.4 77 77 WSW 17 28 29.97 1015 9 14.48406 0 0
1:29 pm 13:29 Mostly Cloudy 46 8 39 4 76 76 SW 16 26 30 1016 8 12.87472 0 0
2:56 pm 14:56 Mostly Cloudy 46 7.8 40 4.4 79 79 SW 18 30 29.97 1015 9 14.48406 0 0
3:20 pm 15:20 Partly Cloudy 45 7 39 4 81 81 WSW 20 31 30 1016 8 12.87472 0 0
3:56 pm 15:56 Mostly Cloudy 45 7.2 40 4.4 83 83 W 13 20 29.98 1015 9 14.48406 0 0
4:56 pm 16:56 Cloudy 45 7.2 40 4.4 83 83 W 14 22 29.99 1016 7 11.26538 0 0
5:56 pm 17:56 Cloudy 45 7.2 40 4.4 83 83 W 15 24 29.99 1016 8 12.87472 0 0
6:56 pm 18:56 Cloudy 45 7.2 40 4.4 83 83 W 13 20 30.03 1017 7 11.26538 0 0
7:56 pm 19:56 Cloudy 44 6.7 40 4.4 85 85 WSW 10 17 30.04 1017 7 11.26538 0 0
8:30 pm 20:30 Partly Cloudy with Mist and Fog 43 6 39 4 87 87 WSW 10 17 30.06 1018 6 9.65604 0 0
8:56 pm 20:56 Mostly Clear with Mist and Fog 42 5.6 40 4.4 92 92 WSW 10 17 30.04 1017 6 9.65604 0 0
9:56 pm 21:56 Mostly Clear with Mist and Fog 41 5 39 3.9 93 93 W 9 15 30.06 1018 5 8.0467 0 0
10:56 pm 22:56 Clear with Mist and Fog 41 5 39 3.9 93 93 W 10 17 30.06 1018 4 6.43736 0 0
11:11 pm 23:11 Mostly Clear with Mist and Fog 39 4 39 4 100 100 W 9 15 30.06 1018 4 6.43736 0 0
11:56 pm 23:56 Clear with Mist and Fog 40 4.4 39 3.9 97 97 W 9 15 30.06 1018 3 4.82802 0 0

Powered by AerisWeather